Deer Park, WA

11:54 PM PDT on May 26, 2017 (GMT -0700)
Deer Park

Weather History for KDEW - May, 2014

Change the Weather History Date:

Friday, May 23, 2014

  Actual Average Record
Temperature  
Mean Temperature 61 °F 54 °F  
Max Temperature 75 °F 68 °F 89 °F (2001)
Min Temperature 47 °F 40 °F 31 °F (2007)
Degree Days  
Heating Degree Days 4 11  
Month to date heating degree days 255 322  
Since 1 July heating degree days 7128 7133  
Cooling Degree Days 0 0  
Month to date cooling degree days 0 0  
Year to date cooling degree days 0 0  
Growing Degree Days 10 (Base 50)    
Moisture  
Dew Point 49 °F    
Average Humidity 68    
Maximum Humidity 93    
Minimum Humidity 43    
Precipitation  
Precipitation 0.05 in 0.06 in 0.42 in (2016)
Month to date precipitation 0.91 1.29  
Year to date precipitation 10.88 9.19  
Sea Level Pressure  
Sea Level Pressure 29.95 in    
Wind  
Wind Speed 6 mph (SSW)    
Max Wind Speed 23 mph    
Max Gust Speed 29 mph    
Visibility 10 miles    
Events Rain    
T = Trace of Precipitation, MM = Missing Value Source: NWS Daily Summary

Daily Weather History Graph

Daily Weather History Graph

Search for Another Location

Airport or City:

Trip Planner

Search our weather history database for the weather conditions in past years. The results will help you decide how hot, cold, wet, or windy it might be!

Date:

Astronomy

May. 23, 2014 Rise Set
Actual Time 5:01 AM PDT 8:31 PM PDT
Civil Twilight 4:23 AM PDT 9:10 PM PDT
Nautical Twilight 3:32 AM PDT 10:01 PM PDT
Astronomical Twilight 2:24 AM PDT 11:10 PM PDT
Moon 2:23 AM PDT (5/23) 3:07 PM PDT (5/23)
Length of Visible Light 16h 46m
Length of Day
15h 29m
Waning Crescent, 26% of the Moon is Illuminated
May 23
Waning Crescent
May 28
New
Jun 5
First Quarter
Jun 12
Full
Jun 19
Last Quarter

Hourly Weather History & Observations

Time (PDT) Temp. Dew Point Humidity Pressure Visibility Wind Dir Wind Speed Gust Speed Precip Events Conditions
12:53 AM 52.0 °F 46.9 °F 83% 29.97 in 10.0 mi Calm Calm - N/A   Clear
1:53 AM 50.0 °F 46.0 °F 86% 29.97 in 10.0 mi Calm Calm - N/A   Clear
2:53 AM 50.0 °F 46.0 °F 86% 29.97 in 10.0 mi Calm Calm - N/A   Clear
3:53 AM 48.0 °F 45.0 °F 89% 29.97 in 10.0 mi Calm Calm - N/A   Clear
4:53 AM 46.9 °F 44.1 °F 90% 29.97 in 10.0 mi Calm Calm - N/A   Clear
5:53 AM 53.1 °F 46.9 °F 80% 29.96 in 10.0 mi Calm Calm - N/A   Clear
6:53 AM 57.0 °F 50.0 °F 77% 29.96 in 10.0 mi Calm Calm - N/A   Clear
8:53 AM 62.1 °F 52.0 °F 70% 29.96 in 10.0 mi NNW 4.6 mph - N/A   Clear
9:53 AM 66.9 °F 50.0 °F 54% 29.95 in 10.0 mi Calm Calm - N/A   Clear
10:53 AM 70.0 °F 52.0 °F 53% 29.94 in 10.0 mi Calm Calm - N/A   Clear
11:53 AM 73.0 °F 51.1 °F 46% 29.92 in 10.0 mi Variable 6.9 mph - N/A   Clear
12:53 PM 75.0 °F 51.1 °F 43% 29.91 in 10.0 mi Variable 4.6 mph - N/A   Clear
1:53 PM 68.0 °F 53.1 °F 59% 29.93 in 4.0 mi SSW 17.3 mph 21.9 mph 0.04 in Rain Rain
2:11 PM 64.9 °F 52.0 °F 63% 29.94 in 10.0 mi South 15.0 mph 28.8 mph 0.01 in Rain Light Rain
2:53 PM 69.1 °F 57.0 °F 65% 29.94 in 10.0 mi WNW 6.9 mph - 0.01 in   Overcast
3:53 PM 68.0 °F 51.1 °F 55% 29.95 in 10.0 mi SW 16.1 mph 21.9 mph 0.00 in   Overcast
4:53 PM 69.1 °F 50.0 °F 51% 29.93 in 10.0 mi South 10.4 mph - N/A   Scattered Clouds
5:53 PM 70.0 °F 48.9 °F 47% 29.91 in 10.0 mi SSW 3.5 mph - N/A   Mostly Cloudy
6:53 PM 69.1 °F 52.0 °F 54% 29.91 in 10.0 mi SSW 10.4 mph - N/A   Mostly Cloudy
7:53 PM 66.9 °F 44.1 °F 44% 29.92 in 10.0 mi SSW 11.5 mph - N/A   Clear
8:53 PM 64.9 °F 44.1 °F 47% 29.94 in 10.0 mi SSW 13.8 mph - N/A   Clear
10:53 PM 60.1 °F 48.0 °F 64% 29.96 in 10.0 mi South 10.4 mph - N/A   Clear
11:53 PM 57.9 °F 48.0 °F 70% 29.97 in 10.0 mi South 13.8 mph - N/A   Clear